Wind_Speed
32 31 30 32 33 34 36 40 48 46 30 29 33 43 27 25 27 22 18 16 14 8 7 5 4 7 6 10 7 2 8 5 12 14 13 12 15 15 11 9 12 10 12 18
26 28 28 28 28 30 33 39 35 32 37 37 33 36 39 29 24 27 24 17 13 11 7 5 6 8 12 10 6 3 5 6 11 13 6 5 7 2 8 10 12 20 15 20
23 24 25 27 29 30 31 35 36 30 36 39 35 32 27 28 26 28 24 18 18 13 9 11 7 8 9 10 10 13 13 13 18 23 21 15 21 23 18 18 20 25 28 34
21 22 24 25 27 31 32 33 28 37 33 37 28 29 22 24 23 22 14 15 18 14 12 12 17 15 16 16 17 20 14 21 21 28 27 19 22 25 26 26 28 28 34 34
20 21 21 22 23 27 31 29 23 30 22 35 28 27 24 19 15 13 16 15 11 11 10 9 6 12 10 11 9 12 16 14 13 23 23 17 21 26 30 28 30 32 34 34
18 19 20 20 20 22 25 23 14 19 24 14 23 21 17 19 16 14 13 11 9 9 10 11 14 15 18 20 19 15 17 13 11 27 18 18 17 31 27 28 27 25 28 28
16 16 17 17 18 18 18 19 17 16 15 15 14 11 13 12 12 10 9 10 9 10 11 13 15 18 20 23 24 23 24 19 18 27 25 21 36 29 28 25 26 27 28 29
15 16 16 17 16 16 17 17 17 17 17 16 14 12 12 12 12 13 13 11 11 12 12 15 15 14 19 27 26 24 25 25 20 23 23 25 30 33 25 22 32 25 24 24
14 15 14 15 16 17 18 17 17 18 16 16 15 15 15 15 15 16 16 15 16 16 16 15 8 10 12 8 7 10 19 26 30 25 21 17 37 25 20 22 33 19 19 12
16 16 16 15 15 15 16 16 17 17 16 15 15 15 15 16 16 16 16 17 16 15 15 14 13 18 15 18 14 12 15 17 29 32 22 23 30 22 14 18 22 13 17 16
15 15 14 14 14 14 14 14 15 16 16 16 15 16 17 17 16 17 19 16 20 18 15 13 16 16 21 21 21 17 20 20 24 22 24 29 16 12 25 21 19 20 17 17
14 14 14 14 13 13 12 13 15 16 16 15 14 20 19 17 17 18 22 23 17 12 12 16 15 18 17 20 24 16 20 24 22 20 21 15 18 22 22 17 23 22 19 19
13 13 13 13 12 11 11 12 13 16 19 20 23 19 21 25 21 21 26 27 24 26 22 18 16 17 16 22 25 23 24 20 24 22 27 25 25 28 28 26 20 25 25 26
18 17 14 13 13 14 14 15 17 19 19 23 23 22 21 16 21 24 28 27 22 22 21 24 28 27 21 25 26 27 24 21 22 30 30 30 30 21 22 26 24 21 19 24
23 19 17 15 16 16 15 19 17 14 16 23 30 28 17 18 19 22 19 21 25 27 25 30 29 26 29 32 31 44 29 36 34 43 32 38 31 20 15 18 23 23 24 24
20 20 17 16 17 20 21 20 17 19 20 23 27 18 16 15 17 21 23 24 26 29 32 31 31 28 21 21 35 30 32 32 25 30 31 36 29 23 19 16 23 26 29 26
18 19 19 18 18 18 18 19 17 16 6 19 14 11 2 16 17 17 24 26 30 33 30 37 29 25 29 38 47 36 36 30 24 25 32 29 16 12 12 21 25 26 25 27
16 15 15 15 16 19 17 12 13 13 15 22 11 13 11 10 18 24 20 30 36 35 34 31 29 23 30 36 32 26 12 16 26 26 13 15 16 16 20 22 22 24 25 26
14 13 12 11 11 13 13 10 5 9 21 9 13 16 11 8 18 18 2 9 24 24 34 29 22 29 30 40 28 9 9 12 9 11 10 13 13 15 19 21 22 21 18 16
12 10 10 11 10 11 9 9 6 8 19 27 28 26 23 23 20 10 3 9 13 14 25 18 33 37 31 27 21 15 9 8 12 14 14 15 17 17 18 17 16 17 17 17
15 14 13 13 12 11 6 5 7 8 7 15 17 18 18 11 9 7 4 2 6 4 7 14 8 14 15 18 17 18 20 18 16 19 23 23 21 20 18 15 15 12 13 15
15 13 15 14 8 4 5 6 7 7 7 7 5 5 5 6 6 4 4 4 4 3 5 7 6 11 9 7 10 15 19 22 24 26 31 31 23 21 18 14 10 11 13 15
17 12 9 6 8 10 8 8 6 6 6 6 6 5 8 3 4 4 3 3 4 2 5 5 6 5 5 8 13 15 15 14 15 17 18 19 20 17 17 14 11 12 15 11
14 9 8 8 7 8 10 12 8 9 8 9 10 10 6 4 3 4 3 4 4 3 4 5 4 6 7 7 4 4 5 9 11 12 12 15 17 16 12 10 11 14 9 6
9 8 7 10 10 9 8 9 9 11 11 12 12 9 8 6 5 4 5 3 4 5 3 1 3 6 6 7 7 6 7 10 14 14 15 16 17 16 12 12 12 8 6 5
8 8 6 5 7 8 11 14 13 14 10 10 9 7 5 7 5 5 5 4 5 2 2 3 6 6 6 7 7 10 12 13 14 15 14 14 16 14 13 12 9 8 8 5
7 6 6 5 7 7 10 12 12 13 12 11 10 6 8 5 5 6 9 9 7 6 10 9 7 6 7 7 7 9 8 10 15 17 19 18 15 14 13 11 10 9 8 6
Wind_Direction
235 230 225 218 216 212 208 202 204 211 219 207 213 207 206 210 215 201 196 195 199 177 197 221 222 212 199 200 215 271 269 262 264 265 250 272 268 261 254 251 266 258 276 273
230 217 211 206 203 197 198 195 198 207 203 200 205 212 221 216 209 207 209 209 209 230 220 227 217 213 235 239 242 228 258 265 294 283 241 207 198 225 287 268 263 264 275 274
199 193 192 191 191 188 189 192 193 187 190 203 206 202 187 193 202 212 217 224 235 245 240 240 225 217 255 249 249 263 271 254 248 257 263 287 281 280 275 263 263 271 268 281
172 174 175 178 182 184 187 186 191 198 207 212 215 212 214 208 213 220 231 247 250 239 237 238 240 244 251 268 261 269 258 259 258 268 269 265 264 265 262 256 260 264 278 279
165 164 165 168 171 179 185 190 202 202 207 217 207 203 211 230 228 220 214 215 211 212 221 220 230 235 249 223 248 245 243 255 257 264 267 267 267 265 262 259 260 265 268 273
167 168 169 170 173 178 181 184 180 184 194 189 201 214 200 195 196 192 190 184 204 215 228 248 249 252 251 253 249 249 253 255 268 270 272 284 265 264 267 265 259 262 268 283
176 177 177 180 183 188 192 198 199 193 187 193 195 187 190 192 196 212 206 207 212 235 248 257 263 266 268 264 261 258 256 250 252 268 277 265 265 276 265 262 259 265 268 276
185 187 189 189 194 201 207 211 214 213 212 211 212 214 217 221 223 232 240 242 243 250 255 263 269 275 275 274 270 257 255 241 242 238 255 263 268 259 260 261 267 270 266 276
202 199 195 196 201 207 212 215 218 221 223 222 223 225 225 228 233 242 247 248 251 254 252 254 240 248 264 259 261 240 233 229 226 236 245 256 264 285 265 250 260 267 257 245
198 197 198 201 203 209 212 215 218 221 223 227 226 228 232 238 240 246 250 251 250 252 246 228 239 245 248 243 246 231 230 228 233 238 247 258 268 272 245 223 254 264 267 259
193 192 194 198 203 204 210 215 221 227 232 238 241 242 243 246 247 249 249 246 242 233 222 229 237 246 244 249 246 241 241 245 244 246 253 253 245 253 237 257 256 266 261 266
189 190 196 201 208 215 222 231 238 244 249 246 243 243 242 241 246 248 251 243 237 219 212 225 231 243 245 246 254 248 242 241 248 240 243 259 265 288 302 246 254 261 258 258
198 202 208 213 219 224 229 243 255 260 264 266 259 256 249 248 257 251 248 251 238 235 232 231 231 237 243 244 251 257 253 252 258 266 261 270 274 276 273 266 259 257 247 265
220 214 215 221 235 235 242 255 261 265 270 276 269 262 261 260 265 258 258 251 244 238 230 237 241 244 250 252 257 254 248 254 260 259 265 292 270 259 271 259 258 244 261 274
210 210 217 226 235 250 256 262 259 263 266 274 284 289 285 279 263 259 246 239 238 232 239 239 242 248 249 255 260 259 252 260 262 271 273 295 279 254 266 252 240 244 274 277
200 210 218 227 238 253 258 263 267 275 271 276 282 291 302 281 260 252 250 244 238 240 243 247 245 241 245 254 253 264 266 272 278 270 281 285 267 267 224 247 256 260 270 270
212 219 234 241 244 249 256 268 276 289 291 251 279 308 351 321 310 293 264 240 227 229 235 240 246 244 248 255 259 261 268 268 266 273 281 269 250 220 241 246 253 260 263 271
217 223 230 237 244 251 256 275 281 264 260 240 247 279 302 313 309 309 273 244 229 230 230 240 239 242 244 255 264 278 300 279 265 256 263 219 204 226 246 253 257 265 274 277
222 223 220 221 226 251 260 216 225 223 209 218 235 247 271 290 312 322 238 211 211 225 229 230 233 239 235 253 266 296 264 278 276 176 213 218 229 237 252 261 265 264 264 269
187 179 180 211 199 217 199 202 191 192 217 236 252 258 265 287 297 292 256 197 204 210 233 243 233 247 254 254 262 236 248 227 222 226 231 255 259 258 255 253 257 271 273 272
173 191 199 199 199 194 182 194 203 207 232 251 262 269 268 276 260 270 270 192 187 223 210 201 235 264 269 257 248 236 233 244 245 239 239 250 255 252 246 257 274 266 266 268
181 186 180 167 180 204 210 220 212 216 221 236 240 275 303 264 239 234 239 226 220 234 207 215 255 274 269 275 257 246 251 257 256 247 246 256 253 248 250 255 262 265 264 262
163 160 160 198 215 217 219 212 209 206 214 223 233 287 322 271 230 231 245 240 233 213 210 241 246 219 206 264 255 247 247 254 242 238 239 241 236 244 252 243 255 262 260 262
171 184 209 212 213 219 222 226 235 236 244 245 264 275 280 277 237 227 230 232 235 237 243 252 222 219 262 251 236 244 285 268 247 229 228 226 228 235 235 242 249 252 254 254
196 207 218 228 225 232 234 238 264 253 256 273 269 272 259 250 231 236 226 227 234 226 232 273 285 283 267 256 259 263 268 258 247 233 229 229 229 230 235 237 240 232 199 179
229 234 230 232 235 244 260 274 268 263 245 246 242 257 261 232 220 224 225 221 228 255 199 308 313 290 266 255 237 251 260 247 237 228 217 223 222 222 228 230 222 198 190 192
228 231 218 245 259 269 274 267 255 250 241 238 238 229 218 221 212 218 228 235 254 248 282 290 290 274 269 268 263 267 267 254 233 221 214 216 220 225 227 220 208 203 206 207
Height
2954 2957 2963 2968 2974 2981 2987 2994 3002 3005 3010 3018 3019 3021 3023 3028 3031 3035 3038 3041 3043 3048 3051 3054 3054 3055 3058 3058 3060 3062 3061 3062 3063 3063 3063 3064 3064 3064 3065 3064 3061 3058 3055 3049
2947 2952 2957 2962 2968 2974 2979 2987 2994 3000 3006 3009 3011 3014 3017 3023 3027 3031 3034 3036 3039 3043 3048 3050 3049 3052 3054 3055 3056 3058 3058 3059 3057 3054 3059 3058 3059 3060 3061 3060 3058 3053 3053 3046
2945 2948 2954 2958 2964 2971 2978 2985 2991 2995 3000 3002 3006 3009 3012 3016 3022 3026 3028 3031 3035 3038 3041 3043 3047 3049 3049 3049 3052 3053 3054 3055 3056 3053 3051 3054 3055 3054 3056 3055 3052 3047 3045 3041
2944 2948 2953 2957 2963 2969 2976 2980 2984 2988 2993 2997 3001 3005 3009 3012 3017 3021 3024 3026 3029 3034 3037 3039 3042 3044 3045 3046 3046 3048 3051 3047 3048 3045 3044 3049 3048 3048 3045 3045 3044 3044 3038 3035
2946 2950 2953 2959 2963 2968 2974 2978 2983 2987 2991 2995 2999 3000 3004 3009 3012 3019 3019 3021 3024 3027 3031 3034 3036 3035 3037 3040 3042 3042 3042 3042 3040 3037 3037 3040 3039 3036 3033 3036 3035 3034 3031 3027
2947 2951 2955 2959 2964 2969 2972 2978 2981 2984 2988 2992 2995 2998 3003 3006 3010 3013 3014 3017 3020 3023 3026 3027 3029 3030 3032 3034 3036 3039 3038 3038 3037 3030 3034 3033 3031 3022 3025 3025 3026 3024 3022 3017
2947 2951 2955 2959 2964 2968 2972 2977 2980 2983 2987 2991 2993 2997 3000 3003 3005 3005 3008 3013 3017 3019 3021 3023 3024 3025 3026 3026 3027 3029 3028 3032 3035 3029 3029 3024 3014 3018 3016 3016 3017 3016 3014 3011
2947 2951 2955 2959 2963 2966 2970 2974 2977 2979 2984 2988 2990 2993 2995 2998 3001 3004 3006 3009 3012 3014 3017 3019 3019 3020 3018 3016 3016 3018 3020 3024 3027 3026 3018 3014 3010 3006 3011 3009 3005 3008 3006 3005
2946 2950 2954 2958 2962 2965 2968 2971 2974 2977 2981 2983 2986 2990 2993 2995 2998 3001 3003 3006 3007 3010 3011 3014 3014 3014 3014 3013 3011 3011 3013 3015 3020 3016 3012 3005 2997 3002 3002 3003 2996 3000 2998 2998
2945 2949 2952 2956 2959 2962 2966 2968 2971 2975 2977 2980 2983 2986 2989 2991 2994 2996 2998 2999 3002 3004 3006 3008 3008 3008 3009 3006 3006 3008 3008 3009 3007 3006 3004 2996 2992 2996 2996 2997 2993 2991 2991 2991
2944 2947 2951 2954 2957 2961 2963 2966 2968 2971 2974 2977 2980 2982 2984 2987 2990 2991 2992 2997 2995 2998 3001 3003 3003 3000 3000 2999 2999 3000 3001 3002 2999 2999 2998 2991 2988 2990 2989 2990 2988 2988 2987 2986
2943 2946 2949 2952 2955 2958 2962 2964 2965 2967 2971 2974 2975 2976 2979 2982 2984 2986 2986 2988 2988 2991 2993 2994 2994 2993 2992 2992 2990 2993 2993 2993 2992 2991 2986 2983 2982 2982 2981 2980 2981 2982 2982 2982
2942 2945 2948 2950 2953 2956 2959 2960 2962 2964 2965 2967 2968 2972 2974 2974 2977 2977 2978 2979 2982 2983 2985 2986 2987 2985 2985 2984 2982 2984 2984 2986 2982 2983 2975 2977 2977 2977 2975 2977 2976 2977 2977 2978
2940 2943 2946 2948 2951 2953 2956 2958 2959 2960 2961 2960 2962 2964 2966 2968 2968 2967 2969 2972 2973 2976 2978 2976 2976 2977 2977 2975 2976 2974 2977 2977 2974 2969 2968 2968 2966 2967 2970 2970 2971 2972 2973 2973
2937 2941 2944 2947 2948 2950 2952 2954 2955 2957 2960 2956 2954 2954 2957 2959 2959 2959 2961 2962 2963 2966 2967 2965 2965 2968 2971 2967 2966 2953 2964 2962 2963 2956 2964 2963 2957 2962 2963 2963 2966 2968 2968 2968
2935 2938 2941 2944 2946 2947 2948 2949 2952 2953 2953 2951 2947 2945 2947 2948 2947 2948 2951 2952 2955 2957 2957 2958 2957 2960 2962 2956 2947 2951 2951 2951 2951 2949 2955 2951 2950 2953 2956 2959 2961 2963 2963 2962
2932 2936 2938 2940 2942 2943 2945 2947 2946 2946 2947 2946 2945 2940 2941 2942 2940 2940 2939 2941 2942 2946 2948 2947 2950 2952 2951 2943 2934 2943 2942 2943 2945 2946 2945 2943 2945 2949 2952 2955 2956 2957 2956 2956
2929 2932 2935 2936 2937 2938 2938 2941 2940 2941 2944 2943 2943 2939 2938 2938 2937 2931 2927 2929 2934 2936 2939 2940 2941 2945 2943 2930 2928 2931 2933 2936 2936 2936 2935 2937 2942 2944 2948 2950 2951 2951 2951 2949
2926 2929 2931 2933 2933 2934 2935 2936 2936 2935 2941 2939 2937 2935 2935 2934 2933 2929 2926 2926 2929 2931 2931 2934 2939 2934 2926 2919 2925 2928 2928 2928 2929 2931 2934 2936 2938 2940 2942 2944 2945 2945 2944 2943
2924 2927 2929 2930 2931 2932 2933 2934 2934 2934 2935 2933 2931 2932 2932 2933 2931 2928 2926 2925 2926 2926 2927 2930 2926 2918 2917 2919 2922 2924 2925 2927 2928 2929 2930 2932 2934 2936 2938 2939 2939 2939 2938 2938
2921 2924 2926 2928 2929 2930 2931 2932 2932 2932 2932 2929 2927 2928 2928 2927 2927 2926 2925 2923 2923 2922 2923 2923 2919 2912 2910 2913 2916 2919 2919 2922 2924 2926 2926 2929 2931 2932 2933 2934 2934 2932 2932 2933
2921 2923 2925 2927 2928 2929 2930 2928 2928 2927 2927 2925 2925 2925 2924 2923 2923 2924 2924 2923 2922 2921 2920 2920 2914 2910 2909 2910 2911 2912 2914 2916 2918 2920 2922 2923 2925 2927 2928 2929 2928 2929 2929 2929
2919 2922 2924 2925 2926 2925 2923 2922 2922 2922 2922 2923 2923 2923 2922 2921 2921 2921 2921 2920 2920 2919 2918 2915 2911 2910 2910 2910 2910 2911 2913 2913 2914 2915 2917 2919 2921 2922 2924 2924 2925 2926 2926 2925
2918 2920 2921 2921 2918 2917 2916 2918 2919 2920 2920 2921 2920 2921 2921 2920 2920 2919 2919 2919 2918 2917 2915 2910 2909 2909 2910 2909 2908 2908 2909 2910 2911 2912 2914 2916 2918 2920 2920 2921 2922 2923 2921 2921
2917 2917 2915 2913 2913 2914 2915 2916 2917 2917 2918 2917 2917 2917 2918 2917 2918 2917 2916 2915 2914 2912 2910 2910 2909 2908 2908 2908 2907 2907 2907 2909 2910 2910 2911 2913 2915 2917 2918 2919 2920 2919 2918 2919
2914 2912 2910 2910 2911 2912 2912 2911 2912 2912 2914 2914 2915 2915 2915 2914 2914 2913 2912 2912 2909 2909 2909 2909 2909 2908 2907 2907 2906 2906 2907 2907 2907 2908 2909 2910 2912 2913 2915 2916 2916 2916 2917 2918
2909 2907 2908 2908 2908 2909 2908 2907 2907 2907 2910 2911 2912 2912 2911 2910 2910 2910 2908 2907 2907 2907 2908 2908 2907 2906 2906 2905 2904 2904 2903 2903 2903 2904 2905 2907 2909 2911 2912 2912 2913 2914 2915 2916